Weather Roundup
Issued by NWS Chicago, IL

Home | Current Version | Previous Version | Text Only | Print | Product List | Glossary On
Versions: 1 2 3 4 5 6 7 8 9 10 11 12 13 14 15 16 17 18 19 20 21 22 23 24 25 26 27 28 29 30 31 32 33 34 35 36 37 38 39 40 41 42 43 44 45 46 47 48 49 50
181
NZUS59 KLOT 192212
HRRLOT

CHICAGO AREA WEATHER ROUNDUP
NATIONAL WEATHER SERVICE CHICAGO/ROMEOVILLE IL
400 PM CST THU JAN 19 2017

NOTE: "FAIR" INDICATES FEW OR NO CLOUDS BELOW 12,000 FEET WITH NO
SIGNIFICANT WEATHER AND/OR OBSTRUCTIONS TO VISIBILITY.

* THESE STATIONS ARE NOT UNDER NWS QUALITY CONTROL. THEY ALSO MAY NOT
  REPORT WEATHER SUCH AS PRECIPITATION OR FOG.

ILZ005-006-012>014-019>023-192300-
NORTHEAST ILLINOIS

CITY           SKY/WX    TMP DP  RH WIND       PRES   REMARKS
OHARE          CLOUDY    41  36  82 E6        29.87F HAZE
MIDWAY         CLOUDY    40  35  83 E7        29.87F HAZE
AURORA         RAIN      40  38  93 E3        29.86F FOG
LANSING*       CLOUDY    40  38  93 E5        29.87F FOG
JOLIET*        LGT RAIN  41  40  95 E6        29.87F
WAUKEGAN       CLOUDY    36  35  96 SE6       29.88F FOG
DUPAGE AIRPORT LGT RAIN  41  35  79 E7        29.85F
WHEELING       MOCLDY    40  35  83 E6        29.89F HAZE
KANKAKEE*      RAIN      41  39  95 E5        29.86F
MORRIS*        LGT RAIN  39  38  95 E5        29.84F
LEWIS AIRPORT* RAIN      39  39  99 SE5       29.87S
NORTHERLY ISL    N/A     35  33  92 E5          N/A  WCI  31
$$

WIZ051-052-058>065-066-070>072-192300-
SOUTHEAST WISCONSIN

CITY           SKY/WX    TMP DP  RH WIND       PRES   REMARKS
MILWAUKEE      CLOUDY    37  34  89 CALM      29.89F FOG
KENOSHA*       FOG       36  34  92 SE7       29.88F VSB 3/4
RACINE*        FOG       35  34  96 SE5       29.90F VSB<1/4 WCI  31
WAUKESHA       MOCLDY    34  34 100 SE3       29.89F FOG
WEST BEND      CLOUDY    34  34 100 CALM      29.88S FOG
$$

INZ001>003-010>013-019-020-192300-
NORTHWEST INDIANA

CITY           SKY/WX    TMP DP  RH WIND       PRES   REMARKS
GARY*          CLOUDY    41  36  81 E7        29.88F HAZE
MICHIGAN CITY* NOT AVBL
RENSSELAER*    NOT AVBL
VALPARAISO     CLOUDY    40  37  89 E10       29.88F FOG
$$

LMZ740>746-192300-
SOUTHERN LAKE MICHIGAN

STATION/POSITION TIME  SKY/WX   TEMP WIND        PRES    VSBY
                                AIR  DIR/SP/G
                 (UTC)          (F)  (DEG/KT/KT) (MB)    (MI)
HARRISON CRIB    2140            37  100/ 13/ 13   N/A
BURNHAM HARBOR   2200            35   70/  3/  7   N/A
CALUMET HARBOR   2148            37   80/  7/  9 1011.3F
BURNS HARBOR     2140            40  130/  5/ 10 1012.9F
MICHIGAN CITY    2140            40   70/  5/  7   N/A
$$

ABBREVIATIONS USED IN REMARKS
   TC - TEMPERATURE IN CELSIUS
  WCI - WIND CHILL INDEX
   HX - HEAT INDEX
  VSB - VISIBILITY
$$




USA.gov is the U.S. government's official web portal to all federal, state and local government web resources and services.